Orbital Elements at Epoch 2459000.5 (2020-May-31.0) TDB
Reference: JPL 15 (heliocentric ecliptic J2000)
Element | Value | Uncertainty (1-sigma) | Units |
e | .1440846568412963 | 5.3516e-08 | |
a | 2.592526333411096 | 1.7854e-08 | au |
q | 2.218983066309534 | 1.4533e-07 | au |
i | 3.466624834811655 | 4.8788e-06 | deg |
node | 127.4112366386946 | 0.00011125 | deg |
peri | 344.9771819792542 | 0.00011357 | deg |
M | 350.65372252893 | 2.5006e-05 | deg |
tp | 2459040.083971098847 (2020-Jul-09.58397110) | 0.00010609 | TDB |
period | 1524.695756111913 4.17 | 1.575e-05 4.312e-08 | d yr |
n | .2361126792390546 | 2.4391e-09 | deg/d |
Q | 2.966069600512658 | 2.0426e-08 | au |
|
| | Orbit Determination Parameters
Additional Information
|